Home > Weather > Sidney > Past weeks

Flag for USA Weather for the Past 2 Weeks in Sidney, Montana, USA

Now
84 °F

Sunny.


Feels Like: 82 °F
Forecast: 51 / 72 °F
Wind: 7 mph from Northwest

Location: Sidney-Richland

Current Time: May 5, 2016 at 6:37:17 PM

Latest Report: May 5, 2016 at 5:55 PM


Visibility: 10 mi

Pressure: 29.75 "Hg (27.83 "Hg at 591m altitude)

Humidity: 25%

Dew Point: 45 °F

Location of SidneyLocation

Historic Weather in Sidney — Graph

°F

Sidney Temperature Yesterday

Maximum temperature yesterday: 84 °F (at 2:15 PM)
Minimum temperature yesterday: 43 °F (at 4:35 AM)
Average temperature yesterday: 65 °F

High & Low Weather Summary for the Past Weeks

 TemperatureHumidityPressure
High88 °F (May 5, 1:35 PM)93% (Apr 24, 11:35 AM)30.36 "Hg (Apr 24, 11:35 AM)
Low30 °F (May 1, 5:35 AM)18% (May 5, 1:35 PM)29.66 "Hg (Apr 23, 3:35 PM)
Average52 °F56%30.00 "Hg
* Reported Apr 20 5:15 PM — May 5 5:35 PM, Sidney, Weather by CustomWeather, © 2016

Note: Actual official high and low records may vary slightly from our data, if they occured in-between our weather recording intervals... More about our weather records

Advertising

Sidney Weather History for the Previous 24 Hours

Scroll right to see more
 ConditionsComfort  
Time TempWeatherWind HumidityBarometerVisibility
5:35 PM
Thu, May 5
84 °FSunny.7 mph23%29.75 "Hg10 mi
5:15 PM84 °FSunny.10 mph23%29.75 "Hg10 mi
4:55 PM86 °FSunny.10 mph20%29.76 "Hg10 mi
4:35 PM86 °FSunny.12 mph19%29.76 "Hg10 mi
4:15 PM88 °FSunny.12 mph18%29.77 "Hg10 mi
3:55 PM88 °FSunny.12 mph18%29.77 "Hg10 mi
3:35 PM86 °FSunny.10 mph22%29.78 "Hg10 mi
3:15 PM88 °FSunny.12 mph21%29.78 "Hg10 mi
2:55 PM88 °FSunny.8 mph18%29.79 "Hg10 mi
2:35 PM88 °FSunny.14 mph18%29.79 "Hg10 mi
2:15 PM86 °FSunny.12 mph19%29.80 "Hg10 mi
1:55 PM88 °FSunny.12 mph18%29.80 "Hg10 mi
1:35 PM88 °FSunny.14 mph18%29.80 "Hg10 mi
12:55 PM86 °FSunny.13 mph22%29.81 "Hg10 mi
12:35 PM86 °FSunny.15 mph24%29.82 "Hg10 mi
12:15 PM84 °FSunny.13 mph27%29.82 "Hg10 mi
11:55 AM82 °FSunny.14 mph30%29.82 "Hg10 mi
11:35 AM81 °FSunny.13 mph32%29.83 "Hg10 mi
11:15 AM79 °FSunny.12 mph37%29.84 "Hg10 mi
10:55 AM77 °FSunny.9 mph39%29.84 "Hg10 mi
10:35 AM75 °FSunny.12 mph39%29.84 "Hg10 mi
10:15 AM73 °FSunny.12 mph41%29.85 "Hg10 mi
9:55 AM72 °FSunny.10 mph41%29.85 "Hg10 mi
9:35 AM70 °FSunny.13 mph43%29.85 "Hg10 mi
9:15 AM66 °FSunny.13 mph49%29.86 "Hg10 mi
8:55 AM64 °FSunny.12 mph52%29.86 "Hg10 mi
8:35 AM63 °FSunny.9 mph56%29.86 "Hg10 mi
8:15 AM61 °FSunny.10 mph55%29.86 "Hg10 mi
7:55 AM59 °FSunny.7 mph63%29.87 "Hg10 mi
7:35 AM57 °FSunny.8 mph63%29.87 "Hg10 mi
7:15 AM55 °FSunny.8 mph67%29.86 "Hg10 mi
6:55 AM54 °FSunny.6 mph72%29.86 "Hg10 mi
6:35 AM50 °FSunny.5 mph76%29.86 "Hg10 mi
6:15 AM48 °FClear.5 mph76%29.86 "Hg10 mi
5:55 AM46 °FClear.No wind82%29.86 "Hg10 mi
5:35 AM48 °FClear.7 mph76%29.86 "Hg10 mi
5:15 AM48 °FClear.6 mph76%29.86 "Hg10 mi
4:55 AM50 °FClear.3 mph71%29.86 "Hg10 mi
4:35 AM48 °FClear.No wind76%29.86 "Hg10 mi
4:15 AM48 °FClear.8 mph76%29.86 "Hg10 mi
3:55 AM50 °FClear.8 mph71%29.87 "Hg10 mi
3:35 AM52 °FClear.8 mph72%29.86 "Hg10 mi
3:15 AM54 °FClear.7 mph67%29.86 "Hg10 mi
2:55 AM52 °FClear.7 mph72%29.86 "Hg10 mi
2:35 AM54 °FClear.5 mph67%29.87 "Hg10 mi
2:15 AM52 °FClear.No wind67%29.87 "Hg10 mi
1:55 AM52 °FClear.No wind62%29.87 "Hg10 mi
1:35 AM55 °FClear.7 mph63%29.87 "Hg10 mi
1:15 AM55 °FClear.7 mph63%29.88 "Hg10 mi
12:55 AM55 °FClear.8 mph59%29.88 "Hg10 mi
12:35 AM55 °FClear.5 mph59%29.88 "Hg10 mi
12:15 AM57 °FClear.6 mph55%29.87 "Hg10 mi
11:55 PM
Wed, May 4
57 °FClear.5 mph55%29.87 "Hg10 mi
11:35 PM57 °FClear.9 mph55%29.87 "Hg10 mi
11:15 PM59 °FClear.7 mph55%29.87 "Hg10 mi
10:55 PM61 °FClear.3 mph52%29.87 "Hg10 mi
10:35 PM57 °FClear.No wind59%29.87 "Hg10 mi
10:15 PM61 °FClear.3 mph48%29.87 "Hg10 mi
9:55 PM63 °FClear.No wind42%29.87 "Hg10 mi
9:35 PM66 °FClear.6 mph40%29.86 "Hg10 mi
9:15 PM66 °FClear.6 mph40%29.86 "Hg10 mi
8:55 PM68 °FSunny.6 mph35%29.86 "Hg10 mi
8:35 PM70 °FSunny.5 mph33%29.86 "Hg10 mi
8:15 PM72 °FSunny.6 mph31%29.86 "Hg10 mi
7:55 PM73 °FSunny.6 mph33%29.86 "Hg10 mi
7:35 PM75 °FSunny.6 mph34%29.86 "Hg10 mi
7:15 PM77 °FSunny.7 mph30%29.86 "Hg10 mi
6:55 PM79 °FSunny.9 mph28%29.87 "Hg10 mi
6:35 PM82 °FSunny.8 mph20%29.87 "Hg10 mi
6:15 PM82 °FSunny.10 mph21%29.87 "Hg10 mi
Weather by CustomWeather, © 2016

See weather overviewHow to use our weather pages